Piedmont Triad International Airport
KGSO : now visible

Airfield :











YOU CAN JOIN US ON...

 
LOGIN :

Register | Disclaimer

   EN    FR    IT 

 









Legend :    VFR   Marginal VFR   IFR   Intensive IFR   Very Intensive IFR
Visi :
Ceiling :
>= 8 km
>= 3000ft
5 to 8 km
1000 to 3000 ft
1500m to 5 km
500 to 1000 ft
800 to 1500m
200 to 500 ft
< 800m
< 200 ft
Symbols :   Thunderstorms  Fog  Heavy snow  Heavy precipitations  Wind > 20 kt






- Airport Elevation : 925 ft
- IATA code : GSO


KGSO - Piedmont Triad International

CURRENT METAR :
  • 211854Z 08011G22KT 10SM SCT041 18/08 A3042 RMK AO2 SLP298 T01830078

EXPIRED METARs :
  • 211754Z 03010KT 10SM SCT038 18/08 A3045 RMK AO2 SLP309 T01830083 10183 20078 58020
  • 211654Z 05008KT 10SM SCT037 18/08 A3048 RMK AO2 SLP317 T01780078

TAF KGSO
Valid from the 21 at 18:00 until the 22 at 18:00 UTC


211720Z 2118/2218 04010G16KT P6SM SCT050
FM212300 03002KT P6SM SKC
FM221400 35003KT P6SM SKC
KZTL FIR / North America



MET'MAP, your aeronautical weather chart ! - Copyright ORBIFLY December 2007 - Disclaimer

ORBIFLY MET'MAP TEAM :

Programming & Development : Alexandra Zaïnal
Concept & original design : Baudouin d'Aumeries
Assistance for programming : Marc-Olivier Méhu
Technical & hardware support : Manuel Goepfert

Contact : metmap@orbifly.com




SOURCES & CREDITS :

   NOAA       Earth
Advisory